Current weather by "City, St" or "zip code"  
 

Current Conditions: Beaver County Airport, PA

Overcast


50.0 F

Last Updated on Oct 24 2020, 12:55 pm EDT
Humidity: 67%
Wind Speed: N 5.8 mph
Barometer 30.15 in
Dewpoint: 39.2 F
Visibility: 10.00 mi
Precip: --
Heat Index: NA
Wind Chill: 48 F
Current conditions at:

Beaver County Airport, PA (KBVI)

Lat: 40.77351 Lon: 80.38248

Local Radar Image active severe weather and emergency alerts image image weather storm and storm spotter reports image weather observation monitoring service image
Local
Radar
Active
Alerts
Storm Reports Obs
Monitoring

Sign-up For Email & Text Message Weather Alert Notification Services



Advertise Here

Observation History for Beaver County Airport, PA


Time Wind
(mph)
Vis
(mi)
Weather Precip (in) Temperature (F) Relative
Humidity
Wind
Chill
(F)
Heat
Index
(F)
Pressure
Air Dwpt altimeter
(in)
sea level
(mb)
Rmks
12:55 pm EDT N 5.8 10.00 Overcast -- 50.0 39.2 67% 48 NA 30.15 M
11:55 am EDT N 5.8 10.00 Overcast -- 49.0 40.3 72% 47 NA 30.15 M
10:55 am EDT N 5.8 4.00 Drizzle -- 47.0 42.3 83% 44 NA 30.15 M
9:55 am EDT NW 6.9 10.00 Overcast -- 48.0 41.0 76% 45 NA 30.14 M
8:55 am EDT NW 11.5 G 16.1 10.00 Overcast -- 48.0 41.5 79% 43 NA 30.13 M
7:55 am EDT N 6.9 10.00 Overcast -- 48.0 42.8 82% 45 NA 30.10 M
6:55 am EDT N 6.9 G 16.1 10.00 Overcast -- 48.0 43.3 83% 45 NA 30.09 M
5:55 am EDT NW 10.4 G 17.3 10.00 Overcast -- 49.0 45.0 86% 45 NA 30.06 M
4:55 am EDT N 8.1 G 19.6 10.00 Rain -- 51.0 47.7 88% 48 NA 30.04 M
3:55 am EDT NW 10.4 G 18.4 4.00 Drizzle -- 54.0 50.2 87% 51 NA 30.01 M
2:55 am EDT NW 9.2 G 17.3 3.00 Drizzle -- 57.0 53.2 87% 55 NA 29.98 M
1:55 am EDT SW 9.2 10.00 Overcast -- 64.0 60.4 88% NA NA 29.94 M
12:55 am EDT SW 4.6 10.00 Thunderstorm Light Rain in Vicinity -- 64.0 60.8 88% NA NA 29.94 M
11:55 pm EDT W 5.8 10.00 Rain -- 65.0 60.3 86% NA NA 29.94 M
10:55 pm EDT W 12.7 G 26.5 10.00 Overcast -- 71.0 56.7 62% NA NA 29.96 M
9:55 pm EDT S 5.8 10.00 Thunderstorm in Vicinity -- 71.0 55.4 58% NA NA 29.93 M
8:55 pm EDT S 5.8 10.00 Partly Cloudy -- 72.0 55.4 56% NA NA 29.93 M
7:55 pm EDT S 6.9 10.00 Fair -- 73.0 55.4 53% NA NA 29.93 M
6:55 pm EDT S 8.1 10.00 Fair -- 74.0 55.8 52% NA NA 29.93 M
5:55 pm EDT S 6.9 10.00 Partly Cloudy -- 77.0 56.3 49% NA NA 29.95 M
4:55 pm EDT SW 9.2 G 17.3 10.00 Partly Cloudy -- 79.0 57.0 47% NA NA 29.96 M
3:55 pm EDT S 8.1 G 17.3 10.00 Partly Cloudy -- 79.0 56.8 47% NA NA 29.98 M
2:55 pm EDT S 10.4 10.00 Partly Cloudy -- 81.0 57.4 45% NA 81 30.00 M
1:55 pm EDT S 11.5 G 18.4 10.00 Fair -- 80.0 57.4 47% NA 81 30.03 M

Regional Weather Observation


Beaver County Airport, PA (KBVI)

Overcast
50.0 F

Youngstown, Youngstown-Warren Regional Airport, OH (KYNG)

Overcast
47.0 F

Pittsburgh, Pittsburgh International Airport, PA (KPIT)

Mostly Cloudy
48.0 F

Port Meadville Airport, PA (KGKJ)

Overcast
43.0 F

Wheeling, Wheeling Ohio County Airport, WV (KHLG)

Overcast
47.0 F

Portage County Airport, OH (KPOV)

Overcast
45.0 F